• In Russia
  • List of Countries
  • For 7 days
  • Water Temperature
  • Satellite Maps
  • Weather Map
  • Weather Widgets
  • user-avatar
    Login

    Hourly Weather Slotwina

    Today, 19 July, Friday

    Time Temperature Precipitation Wind Pressure Humidity
    00:00 +13°C° 0 mm 2 mps 717 mmHg 82%
    01:00 +13°C° 0 mm 2 mps 717 mmHg 81%
    02:00 +13°C° 0 mm 2 mps 717 mmHg 82%
    03:00 +13°C° 0 mm 2 mps 717 mmHg 84%
    04:00 +13°C° 0 mm 2 mps 717 mmHg 85%
    05:00 +15°C° 0 mm 2 mps 717 mmHg 82%
    06:00 +17°C° 0 mm 2 mps 718 mmHg 79%
    07:00 +18°C° 0 mm 2 mps 718 mmHg 76%
    08:00 +20°C° 0.3 mm 2 mps 718 mmHg 70%
    09:00 +21°C° 0.3 mm 2 mps 718 mmHg 65%
    10:00 +24°C° 0.3 mm 2 mps 718 mmHg 59%
    11:00 +24°C° 0.3 mm 2 mps 718 mmHg 57%
    12:00 +25°C° 0.3 mm 2 mps 718 mmHg 55%
    13:00 +26°C° 0.3 mm 2 mps 718 mmHg 52%
    14:00 +25°C° 0.2 mm 2 mps 718 mmHg 55%
    15:00 +25°C° 0.2 mm 2 mps 718 mmHg 57%
    16:00 +25°C° 0.2 mm 2 mps 718 mmHg 60%
    17:00 +23°C° 0.4 mm 2 mps 718 mmHg 67%
    18:00 +21°C° 0.4 mm 2 mps 718 mmHg 74%
    19:00 +19°C° 0.4 mm 2 mps 718 mmHg 82%
    20:00 +18°C° 1.1 mm 2 mps 718 mmHg 86%
    21:00 +18°C° 1.1 mm 1 mps 718 mmHg 90%
    22:00 +18°C° 1.1 mm 1 mps 718 mmHg 94%
    23:00 +18°C° 0.5 mm 1 mps 718 mmHg 93%

    Tomorrow, 20 July, Saturday

    Time Temperature Precipitation Wind Pressure Humidity
    00:00 +18°C° 0.5 mm 1 mps 718 mmHg 93%
    01:00 +18°C° 0.5 mm 1 mps 719 mmHg 92%
    02:00 +16°C° 0 mm 1 mps 718 mmHg 93%
    03:00 +15°C° 0 mm 1 mps 718 mmHg 93%
    04:00 +15°C° 0 mm 1 mps 718 mmHg 94%
    05:00 +16°C° 0 mm 1 mps 719 mmHg 91%
    06:00 +19°C° 0 mm 1 mps 719 mmHg 88%
    07:00 +20°C° 0 mm 1 mps 719 mmHg 85%
    08:00 +22°C° 0 mm 1 mps 720 mmHg 75%
    09:00 +24°C° 0 mm 2 mps 720 mmHg 65%
    10:00 +26°C° 0 mm 2 mps 720 mmHg 56%
    11:00 +26°C° 0.3 mm 2 mps 720 mmHg 57%
    12:00 +26°C° 0.3 mm 2 mps 720 mmHg 57%
    13:00 +27°C° 0.3 mm 2 mps 720 mmHg 58%
    14:00 +26°C° 0.6 mm 2 mps 720 mmHg 62%
    15:00 +26°C° 0.6 mm 2 mps 720 mmHg 66%
    16:00 +25°C° 0.6 mm 2 mps 720 mmHg 70%
    17:00 +24°C° 0.2 mm 2 mps 719 mmHg 74%
    18:00 +23°C° 0.2 mm 2 mps 719 mmHg 78%
    19:00 +21°C° 0.2 mm 2 mps 719 mmHg 83%
    20:00 +20°C° 0 mm 2 mps 719 mmHg 84%
    21:00 +19°C° 0 mm 2 mps 719 mmHg 85%
    22:00 +18°C° 0 mm 2 mps 719 mmHg 86%
    23:00 +18°C° 0 mm 2 mps 719 mmHg 87%

    Day after tomorrow, 21 July, Sunday

    Time Temperature Precipitation Wind Pressure Humidity
    00:00 +18°C° 0 mm 2 mps 719 mmHg 87%
    01:00 +18°C° 0 mm 2 mps 719 mmHg 88%
    02:00 +18°C° 0.7 mm 2 mps 719 mmHg 89%
    03:00 +18°C° 0.7 mm 2 mps 719 mmHg 90%
    04:00 +17°C° 0.7 mm 2 mps 719 mmHg 92%
    05:00 +19°C° 0.4 mm 2 mps 719 mmHg 90%
    06:00 +20°C° 0.4 mm 2 mps 719 mmHg 88%
    07:00 +21°C° 0.4 mm 2 mps 720 mmHg 86%
    08:00 +24°C° 0.3 mm 2 mps 720 mmHg 78%
    09:00 +26°C° 0.3 mm 2 mps 720 mmHg 71%
    10:00 +27°C° 0.3 mm 3 mps 720 mmHg 63%
    11:00 +27°C° 1.1 mm 3 mps 720 mmHg 65%
    12:00 +27°C° 1.1 mm 4 mps 720 mmHg 67%
    13:00 +26°C° 1.1 mm 5 mps 720 mmHg 69%
    14:00 +26°C° 0.6 mm 4 mps 720 mmHg 71%
    15:00 +25°C° 0.6 mm 3 mps 720 mmHg 73%
    16:00 +24°C° 0.6 mm 2 mps 720 mmHg 75%
    17:00 +23°C° 0.1 mm 2 mps 720 mmHg 78%
    18:00 +23°C° 0.1 mm 2 mps 720 mmHg 80%
    19:00 +21°C° 0.1 mm 2 mps 720 mmHg 83%
    20:00 +20°C° 0.2 mm 2 mps 720 mmHg 86%
    21:00 +20°C° 0.2 mm 1 mps 721 mmHg 89%
    22:00 +19°C° 0.2 mm 1 mps 721 mmHg 91%
    23:00 +18°C° 0 mm 1 mps 721 mmHg 92%

    22 July, Monday

    Time Temperature Precipitation Wind Pressure Humidity
    00:00 +18°C° 0 mm 1 mps 721 mmHg 92%
    01:00 +18°C° 0 mm 1 mps 721 mmHg 93%
    02:00 +18°C° 0 mm 1 mps 722 mmHg 93%
    03:00 +16°C° 0 mm 1 mps 722 mmHg 94%
    04:00 +16°C° 0 mm 1 mps 722 mmHg 94%
    05:00 +18°C° 0 mm 1 mps 722 mmHg 92%
    06:00 +19°C° 0 mm 1 mps 723 mmHg 90%
    07:00 +20°C° 0 mm 1 mps 723 mmHg 87%
    08:00 +20°C° 0.1 mm 2 mps 723 mmHg 79%
    09:00 +21°C° 0.1 mm 2 mps 724 mmHg 70%
    10:00 +24°C° 0.1 mm 3 mps 724 mmHg 61%
    11:00 +24°C° 0.1 mm 3 mps 724 mmHg 59%
    12:00 +25°C° 0.1 mm 3 mps 724 mmHg 57%
    13:00 +25°C° 0.1 mm 3 mps 724 mmHg 55%
    14:00 +25°C° 0 mm 3 mps 724 mmHg 54%
    15:00 +25°C° 0 mm 3 mps 724 mmHg 53%
    16:00 +25°C° 0 mm 3 mps 723 mmHg 52%
    17:00 +24°C° 0 mm 3 mps 723 mmHg 59%
    18:00 +21°C° 0 mm 2 mps 723 mmHg 66%
    19:00 +21°C° 0 mm 1 mps 723 mmHg 73%
    20:00 +19°C° 0 mm 1 mps 723 mmHg 75%
    21:00 +18°C° 0 mm 1 mps 724 mmHg 78%
    22:00 +15°C° 0 mm 0 mps 724 mmHg 80%
    23:00 +15°C° 0 mm 0 mps 724 mmHg 82%

    23 July, Tuesday

    Time Temperature Precipitation Wind Pressure Humidity
    00:00 +14°C° 0 mm 0 mps 724 mmHg 83%
    01:00 +14°C° 0 mm 0 mps 723 mmHg 84%
    02:00 +14°C° 0 mm 0 mps 723 mmHg 85%
    03:00 +14°C° 0 mm 0 mps 723 mmHg 86%
    04:00 +13°C° 0 mm 0 mps 723 mmHg 87%
    05:00 +16°C° 0 mm 1 mps 723 mmHg 82%
    06:00 +18°C° 0 mm 1 mps 723 mmHg 78%
    07:00 +20°C° 0 mm 1 mps 724 mmHg 73%
    08:00 +21°C° 0 mm 1 mps 724 mmHg 68%
    09:00 +22°C° 0 mm 1 mps 724 mmHg 63%
    10:00 +23°C° 0 mm 2 mps 724 mmHg 58%
    11:00 +24°C° 0 mm 2 mps 724 mmHg 56%
    12:00 +24°C° 0 mm 2 mps 724 mmHg 53%
    13:00 +25°C° 0 mm 2 mps 723 mmHg 51%
    14:00 +24°C° 0 mm 2 mps 723 mmHg 54%
    15:00 +24°C° 0 mm 2 mps 723 mmHg 56%
    16:00 +24°C° 0 mm 2 mps 723 mmHg 59%
    17:00 +23°C° 0 mm 2 mps 722 mmHg 64%
    18:00 +22°C° 0 mm 1 mps 722 mmHg 69%
    19:00 +21°C° 0 mm 1 mps 722 mmHg 75%
    20:00 +20°C° 0 mm 1 mps 722 mmHg 77%
    21:00 +19°C° 0 mm 1 mps 722 mmHg 80%
    22:00 +18°C° 0 mm 1 mps 722 mmHg 83%
    23:00 +18°C° 0 mm 1 mps 722 mmHg 83%

    24 July, Wednesday

    Time Temperature Precipitation Wind Pressure Humidity
    00:00 +18°C° 0 mm 1 mps 722 mmHg 82%
    01:00 +18°C° 0 mm 1 mps 722 mmHg 82%
    02:00 +15°C° 0 mm 0 mps 721 mmHg 83%
    03:00 +15°C° 0 mm 0 mps 721 mmHg 83%
    04:00 +15°C° 0 mm 0 mps 721 mmHg 84%
    05:00 +16°C° 0 mm 0 mps 721 mmHg 80%
    06:00 +18°C° 0 mm 0 mps 722 mmHg 76%
    07:00 +21°C° 0 mm 1 mps 722 mmHg 72%
    08:00 +22°C° 0 mm 1 mps 722 mmHg 69%
    09:00 +23°C° 0 mm 1 mps 722 mmHg 66%
    10:00 +24°C° 0 mm 2 mps 722 mmHg 64%
    11:00 +24°C° 0 mm 2 mps 722 mmHg 62%
    12:00 +25°C° 0 mm 2 mps 722 mmHg 61%
    13:00 +25°C° 0 mm 2 mps 722 mmHg 60%
    14:00 +25°C° 0 mm 2 mps 722 mmHg 60%
    15:00 +25°C° 0 mm 2 mps 722 mmHg 60%
    16:00 +25°C° 0 mm 2 mps 721 mmHg 61%
    17:00 +24°C° 0 mm 2 mps 721 mmHg 67%
    18:00 +23°C° 0 mm 1 mps 721 mmHg 74%
    19:00 +21°C° 0 mm 1 mps 721 mmHg 81%
    20:00 +20°C° 0 mm 1 mps 721 mmHg 83%
    21:00 +19°C° 0 mm 1 mps 721 mmHg 86%
    22:00 +18°C° 0 mm 1 mps 721 mmHg 89%
    23:00 +18°C° 0 mm 1 mps 721 mmHg 89%
    Show more